Location: Unspecified
(37.1900°S, 145.7100°E)
Time: 02:34:30
(UTC+00:00)

Daily predictions for brighter satellites

Satellite Brightness Start Highest point End
(mag) Time Altitude Azimuth Time Altitude Azimuth Time Altitude Azimuth
Meteor 2-9 Rocket 4.4 08:47:21 10° S 08:52:47 50° ESE 08:58:16 10° NNE
ARIANE 5 R/B 2.6 08:48:15 10° SSE 08:53:20 56° E 08:58:17 10° N
Atlas Centaur 2 4.1 08:47:22 10° W 08:53:43 34° NNW 09:00:45 10° NE
Cosmos 1980 Rocket 3.8 08:51:30 10° SSE 08:55:06 17° SE 08:58:41 10° E
Cosmos 2221 2.4 08:51:02 10° N 08:55:12 81° E 08:59:26 10° S
Helios 1A Rocket 2.3 08:53:15 10° NNE 08:56:33 81° ESE 08:59:53 10° S
Cosmos 1707 4.1 08:54:17 10° NNW 08:57:03 34° W 08:59:51 10° SSW
Meteor 1-11 Rocket 4.1 08:56:17 10° S 09:01:34 40° ESE 09:06:44 10° NE
Thor Agena Rocket 3.6 08:56:23 10° SSE 09:01:36 82° ENE 09:06:48 10° NNW
Resurs 1-3 4.0 08:58:43 10° SSE 09:02:49 38° E 09:06:50 10° NNE
Meteor 1-10 Rocket 4.3 09:01:17 10° N 09:07:10 70° E 09:13:08 10° SSE
SJ-12 3.7 09:03:35 10° SSE 09:07:27 87° E 09:11:16 10° NNW
Cosmos 1536 4.0 09:04:42 10° SSW 09:08:18 45° W 09:11:52 10° NNW
SL-24 DEB 4.1 09:05:42 10° NNE 09:10:16 76° E 09:14:52 10° S
Timation 1 Rocket 4.4 09:04:35 10° N 09:10:27 62° ENE 09:16:23 10° SSE
Cosmos 1238 Rocket 3.2 09:09:04 10° NNE 09:12:05 31° E 09:15:28 10° SSE
Cosmos 1470 2.3 09:13:05 10° S 09:16:30 70° E 09:19:51 10° NNE
Cosmos 1271 Rocket 2.6 09:16:16 10° N 09:19:37 47° E 09:23:01 10° SSE
Centaur D-1A AC-31 2.7 09:18:28 10° NNW 09:20:14 14° NNE 09:22:00 11° NE
Cosmos 1850 Rocket 4.3 09:16:20 10° SSW 09:21:37 75° WNW 09:26:53 10° N
Milstar 3 3.8 09:16:52 10° WNW 09:23:42 48° N 09:32:30 15° ENE
SL-08 R/B 3.7 09:19:52 10° NE 09:24:33 46° ESE 09:29:18 10° S
Meteor 2-4 Rocket 3.9 09:23:17 10° NNE 09:28:24 45° E 09:33:43 10° SSE
ATLAS 5 CENTAUR R/B 3.8 09:25:01 10° S 09:28:28 16° SE 09:30:55 12° ESE
SKYMED 3 4.4 09:26:07 10° NNE 09:29:55 53° ESE 09:33:47 10° S
Centaur D-1AR AC-40 4.3 09:06:34 10° WNW 09:31:46 33° NNW 09:37:06 12° NE
NOAA 6 4.5 09:27:00 10° SSE 09:31:52 38° E 09:36:40 10° NNE
CARTOSAT-1 3.6 09:32:26 10° SSE 09:36:39 54° E 09:40:46 10° N
PSLV R/B 3.9 09:32:55 10° SSE 09:36:48 38° E 09:40:37 10° NNE
Cosmos 1766 Rocket 3.7 09:39:34 10° S 09:43:49 50° E 09:47:23 14° NNE
Tiangong -1.2 09:43:00 10° W 09:46:03 40° NNW 09:47:22 26° NNE
ATLAS 3B R/B 4.0 09:43:23 10° S 09:47:58 20° SE 09:50:19 17° ESE
Meteor 2-11 Rocket 4.4 09:42:52 10° S 09:49:03 74° E 09:55:08 10° NNE
SJ-6B 4.1 09:46:40 10° SE 09:48:05 20° SE 09:48:05 20° SE
SL-8 R/B 4.1 09:45:59 10° NNW 09:50:26 40° NE 09:52:09 29° E
YAOGAN 11 3.9 09:55:25 16° NNE 09:58:46 78° ESE 10:03:07 10° S
COSMOS 2406 3.8 09:55:34 10° NNE 10:00:36 33° ENE 10:05:40 10° SE
SJ-7 4.3 09:59:28 10° S 10:03:12 75° WSW 10:06:51 10° NNW
Radarsat Rocket 3.8 09:59:46 10° SSE 10:05:40 77° ENE 10:11:48 10° NNW
Cosmos 1553 Rocket 4.4 10:00:55 10° NNW 10:07:16 69° W 10:13:45 10° S
SL-08 R/B 4.5 10:02:14 10° S 10:08:36 88° W 10:14:49 10° N
CZ-4C R/B 3.7 10:01:27 10° N 10:09:23 34° ENE 10:16:31 10° SE
YAOGAN 1 4.1 10:06:25 10° S 10:10:25 37° WSW 10:14:22 10° NW
Cosmos 1867 3.7 10:08:19 10° N 10:13:29 49° ENE 10:15:27 33° ESE
Meteor 1-18 Rocket 4.1 10:12:20 10° N 10:17:54 70° E 10:23:37 10° SSE
Okean 3 Rocket 4.1 10:14:39 10° S 10:18:28 44° SE 10:18:28 44° SE
Cosmos 1842 Rocket 3.9 10:17:18 10° NNW 10:21:39 66° W 10:26:05 10° S
SL-19 R/B 4.3 10:15:54 10° SSE 10:22:11 85° ENE 10:28:03 10° NNW
Resurs 01 Rocket 2.1 10:17:52 10° S 10:22:17 62° WSW 10:26:40 10° NNW
CZ-3 Stage 3 2.7 10:16:51 10° WNW 10:22:45 30° N 10:22:45 30° N
Cosmos 1709 Rocket 4.2 10:17:29 10° S 10:23:37 50° E 10:24:42 46° ENE
IRIDIUM 104 4.4 10:19:09 10° S 10:24:20 53° E 10:24:21 53° E
Cosmos 2082 Rocket 2.5 10:21:44 10° NNW 10:27:21 67° WSW 10:33:01 10° SSE
SPOT 5 4.2 10:28:13 10° SSE 10:30:38 27° SE 10:30:38 27° SE
IRIDIUM 114 4.2 10:28:13 10° S 10:33:29 65° E 10:33:29 65° E
Cosmos 1697 Rocket 4.4 10:30:09 10° SW 10:35:02 30° WNW 10:39:53 10° NNW
Cosmos 2333 Rocket 3.9 10:33:11 10° S 10:36:20 20° SE 10:36:20 20° SE
ATLAS 2AS CENTAUR R/B 4.0 10:31:15 10° WNW 10:37:52 40° SW 10:44:43 10° SSE
Cosmos 1745 Rocket 3.9 10:33:20 10° S 10:39:36 89° W 10:42:09 39° N
Cosmos 1980 Rocket 2.4 10:34:00 10° SSW 10:39:38 68° WNW 10:41:22 44° N
IRIDIUM 103 4.2 10:37:20 10° S 10:42:37 81° E 10:42:37 81° E
Cosmos 1818 3.5 10:39:52 10° SSW 10:45:17 78° WNW 10:45:42 72° NNW
SL-16 R/B 3.6 10:44:43 10° S 10:48:08 26° SSE 10:48:08 26° SSE
USA 229 DEB 3.5 10:43:31 10° SSW 10:49:37 58° SE 10:49:37 58° SE
Cosmos 2315 Rocket 3.9 10:45:41 23° N 10:49:50 89° W 10:56:16 10° S
USA 229 3.5 10:43:36 10° SSW 10:49:40 57° SE 10:49:40 57° SE
USA 81 4.2 10:47:56 10° S 10:53:16 73° W 10:53:43 68° NW
Sich 1 4.1 10:49:34 10° SSW 10:52:21 39° SSW 10:52:21 39° SSW
Cosmos 2322 Rocket 4.1 10:53:53 10° S 10:56:02 17° SSE 10:56:02 17° SSE
In-Cosmos 22 4.3 10:57:28 55° NW 10:58:39 73° W 11:04:24 10° S
Cosmos 2360 Rocket 4.2 11:03:30 10° S 11:05:23 17° SSE 11:05:23 17° SSE
ATLAS 5 CENTAUR R/B 2.8 11:06:20 10° SSW 11:10:08 43° SSW 11:10:08 43° SSW
Cosmos 2369 4.0 11:07:31 10° SSW 11:12:35 63° WSW 11:12:35 63° WSW
ATLAS 3B R/B 3.2 11:32:50 10° SSW 11:37:33 53° SW 11:37:33 53° SW
